Location: Newsoms
(36.6240°N, 77.1250°W)
Time: 20:23:19
(UTC-04:00)

Daily predictions for brighter satellites

Satellite Brightness Start Highest point End
(mag) Time Altitude Azimuth Time Altitude Azimuth Time Altitude Azimuth
Cosmos 2026 Rocket 4.1 20:54:20 10° S 21:00:25 87° W 21:06:37 10° N
Cosmos 1538 Rocket 4.4 20:59:38 10° N 21:04:51 52° ENE 21:10:04 10° SE
CZ-2C R/B 1.2 21:06:46 11° SE 21:08:00 21° ENE 21:09:21 10° NNE
Cosmos 332 Rocket 4.0 21:06:29 10° NNW 21:11:18 75° WSW 21:16:09 10° S
Cosmos 2219 4.5 21:07:11 10° SSE 21:11:22 21° E 21:15:33 10° NE
H-2A R/B 2.5 21:11:35 10° SSE 21:15:56 50° ENE 21:20:20 10° N
USA 229 DEB 3.7 21:11:32 10° SSW 21:18:24 75° ESE 21:25:23 10° NE
USA 229 3.7 21:11:38 10° SSW 21:18:31 74° ESE 21:25:29 10° NE
Cosmos 540 Rocket 4.4 21:15:25 10° NNW 21:20:23 49° WSW 21:25:19 10° S
Cosmos 1441 Rocket 3.1 21:17:26 10° S 21:21:12 71° E 21:24:58 10° NNE
Cosmos 1328 Rocket 3.6 21:17:13 10° N 21:21:40 73° E 21:26:05 10° SSE
S3M 4.0 21:19:58 10° N 21:26:07 84° E 21:32:15 10° S
Cosmos 2322 Rocket 2.2 21:20:41 10° NNW 21:26:19 86° WSW 21:31:55 10° SSE
Cosmos 773 Rocket 4.4 21:23:24 10° N 21:28:26 48° ENE 21:32:42 14° SE
Cosmos 2228 Rocket 3.6 21:28:25 10° NNW 21:32:51 63° W 21:37:19 10° S
Cosmos 1743 Rocket 4.2 21:29:12 10° SSW 21:33:36 60° W 21:38:02 10° N
Cosmos 2292 4.2 21:32:21 10° N 21:35:21 87° W 21:38:33 11° S
Cosmos 1980 Rocket 4.1 21:31:02 10° NW 21:35:38 26° WSW 21:40:13 10° SSW
SL-16 R/B 2.4 21:30:40 10° NNW 21:36:21 76° WSW 21:41:52 11° SSE
Cosmos 2360 Rocket 2.9 21:31:12 10° N 21:36:31 40° ENE 21:40:35 16° SE
Cosmos 968 Rocket 4.5 21:33:20 10° SW 21:38:20 50° WNW 21:43:26 10° N
NOSS 3-1 (A) 4.4 21:34:07 10° SSE 21:38:30 23° ESE 21:43:13 10° ENE
Cosmos 1500 Rocket 3.7 21:35:39 10° S 21:40:00 77° W 21:44:24 10° N
ATLAS CENTAUR R/B 3.0 21:38:12 10° NW 21:42:07 31° WSW 21:45:44 10° S
Cosmos 1908 3.3 21:39:41 10° N 21:43:33 60° E 21:46:19 18° SSE
CZ-3A R/B 4.4 13:39:18 10° SSW 21:44:19 43° S 21:49:15 17° SE
Cosmos 371 Rocket 4.1 21:42:41 10° NNW 21:47:18 48° WSW 21:51:53 10° S
deb Chang Zheng 4 4.3 21:44:34 10° N 21:48:49 55° WNW 21:53:03 10° SSW
MetOp-B 4.4 21:45:27 17° SE 21:49:26 54° ENE 21:54:39 10° N
Cosmos 1939 Rocket 3.2 21:47:29 11° S 21:51:11 64° W 21:55:05 10° NNW
DELTA 2 R/B(2) 3.8 21:54:07 10° W 21:55:44 53° NNW 21:57:18 17° ENE
Delta 2 Rocket 2.8 21:52:44 10° WSW 21:56:13 61° S 21:58:00 25° E
Cosmos 1674 2.8 21:53:51 10° SSW 21:57:38 74° W 22:01:30 10° N
Envisat 3.1 21:53:30 13° S 21:58:03 75° WSW 22:03:08 10° NNW
SPOT 5 2.7 21:55:18 19° SSE 21:58:35 86° ENE 22:03:20 10° NNW
Cosmos 883 Rocket 4.4 21:53:02 10° N 21:59:15 76° E 22:04:05 17° SSE
Cosmos 2227 Rocket 4.0 22:00:43 13° E 22:00:43 13° E 22:02:38 10° ENE
ATLAS 2AS CENTAUR R/B 4.3 22:00:49 15° ESE 22:01:14 16° ESE 22:05:24 10° ENE
GPS 2-04 Rocket1 4.3 21:57:47 10° W 22:01:22 25° SSW 22:02:52 20° S
ERS-1 Rocket 4.3 22:00:22 10° SSW 22:04:57 36° W 22:09:35 10° NNW
Tiangong 1 2.1 22:05:06 10° SW 22:06:59 28° SSW 22:06:59 28° SSW
Cosmos 2333 Rocket 4.3 22:06:51 10° NNE 22:10:04 15° NE 22:13:11 10° E
Cosmos 2112 Rocket 4.2 22:05:00 10° N 22:10:10 60° ENE 22:12:50 28° SE
Cosmos 1300 3.5 22:06:39 10° NNE 22:10:12 34° E 22:11:00 31° ESE
Cosmos 1437 Rocket 3.6 22:06:34 10° NNW 22:10:13 44° W 22:13:01 16° SSW
USA 245 2.9 22:10:34 41° ENE 22:10:34 41° ENE 22:12:54 10° N
Cosmos 2298 Rocket 4.4 22:07:58 23° SSE 22:10:47 43° ESE 22:15:48 10° NNE
Cosmos 1437 2.9 22:08:49 20° SSW 22:10:56 71° W 22:14:13 10° N
DELTA 2 R/B (1) 3.6 22:07:15 10° WNW 22:12:48 84° NNE 22:16:24 23° ESE
PSLV R/B 4.0 22:16:12 28° SSW 22:17:27 46° W 22:20:25 10° NNW
Cosmos 1937 Rocket 4.3 22:18:23 29° ESE 22:19:14 30° E 22:23:45 10° NE
Sich 1 3.4 22:20:00 36° SE 22:21:12 46° E 22:25:25 10° NNE
Cosmos 2315 Rocket 3.9 22:15:35 10° N 22:21:48 81° E 22:25:34 25° S
Cosmos 1633 Rocket 3.5 22:21:04 37° SE 22:22:05 43° E 22:26:15 10° NNE
Cosmos 2151 3.6 22:18:32 12° SSW 22:22:16 55° W 22:26:24 10° N
COSMOS 2428 3.2 22:16:52 10° N 22:22:20 46° ENE 22:24:46 29° ESE
YAOGAN 6 2.7 22:23:27 38° S 22:24:43 73° WSW 22:28:21 10° NNW
NOSS 3-1 (C) 3.2 22:20:06 10° SSW 22:25:51 76° ESE 22:32:12 10° NE
Cosmos 405 4.3 22:22:29 10° NNW 22:25:52 38° W 22:27:44 21° SSW
Cosmos 2297 Rocket 4.0 22:28:40 15° E 22:28:40 15° E 22:30:49 10° ENE
CZ-4C R/B 3.7 22:29:16 37° ENE 22:29:23 37° ENE 22:32:37 10° N
Cosmos 304 Rocket 3.9 22:25:17 10° NNW 22:30:04 68° WSW 22:32:12 32° S
H-2A R/B 2.8 22:29:36 30° ESE 22:31:22 39° ENE 22:36:22 10° N
Cosmos 1455 4.4 22:30:47 10° NE 22:32:31 14° ENE 22:32:31 14° ENE
Cosmos 1151 Rocket 4.4 22:31:59 10° NNW 22:35:53 34° W 22:38:40 17° SSW
Cosmos 1805 Rocket 3.7 22:33:35 26° SSW 22:36:03 71° W 22:40:30 10° N
Cosmos 2219 Rocket 3.3 22:33:55 10° N 22:38:51 31° ENE 22:40:42 25° E
ARGOS 3.1 22:37:03 35° SSE 22:39:28 88° WSW 22:44:54 10° NNW
Landsat 7 4.0 22:39:24 44° SE 22:40:36 57° ENE 22:45:17 10° N
SWAS 4.4 22:37:32 10° NNW 22:41:52 80° WSW 22:42:49 53° S
SPOT 1/Viking Rocket 3.7 22:41:06 32° S 22:43:28 65° WSW 22:48:36 10° NNW
Cosmos 2237 4.2 22:38:18 10° NNW 22:44:02 76° ENE 22:46:02 42° SE
Cosmos 1680 Rocket 4.1 22:42:16 10° NNW 22:47:20 50° WSW 22:49:36 30° SSW
Cosmos 2058 3.8 22:46:02 23° SW 22:48:12 45° W 22:52:09 10° N
Nadezhda 1 Rocket 4.4 22:45:15 10° N 22:51:04 45° E 22:52:37 38° ESE
Cosmos 292 Rocket 4.2 22:48:25 10° N 22:53:00 46° ENE 22:53:38 43° E
Spot 4 4.4 22:52:29 38° E 22:53:12 41° ENE 22:57:44 10° N
Cosmos 2219 4.1 22:49:34 10° SW 22:55:06 48° WNW 23:00:40 10° N
Terra 1.9 22:55:46 52° ESE 22:56:28 58° ENE 23:01:08 10° N
SAR-Lupe-2 4.4 22:57:19 39° NE 22:57:19 39° NE 23:00:12 10° N
Cosmos 1707 Rocket 3.9 22:52:44 10° NNW 22:57:00 57° W 22:58:04 44° SW
SL-14 R/B 3.9 22:56:57 40° SW 22:57:59 52° W 23:01:53 10° N
Cosmos 1666 Rocket 4.1 22:56:36 33° SW 22:58:16 54° W 23:02:36 10° N
Cosmos 1703 3.1 22:58:43 78° ENE 22:58:43 78° ENE 23:02:29 10° N
Cosmos 1898 Rocket 3.5 22:56:18 30° SSW 22:58:53 77° WNW 23:04:06 10° NNE
Cosmos 1745 Rocket 3.9 22:57:28 41° SSE 22:59:44 74° E 23:05:55 10° N
Cosmos 2150 Rocket 4.2 22:57:10 26° SSW 23:00:18 74° WNW 23:05:47 10° NNE
SL-08 R/B 4.4 22:58:30 37° S 23:01:13 89° E 23:07:31 10° N
Cosmos 1726 2.5 22:58:56 10° NNW 23:02:40 58° W 23:02:46 58° WSW
Cosmos 1271 Rocket 2.8 22:59:42 10° N 23:03:14 71° NNE 23:03:14 71° NNE
Cosmos 2333 4.1 22:58:30 10° NNW 23:04:16 83° ENE 23:05:40 53° SSE
Spot 2 4.3 23:01:53 10° NNE 23:06:59 67° ESE 23:07:28 63° SE
Cosmos 2237 Rocket 3.1 23:02:11 10° N 23:07:25 36° ENE 23:08:42 32° E
Cosmos 2082 3.8 23:07:20 51° ESE 23:07:44 52° ESE 23:13:16 10° NNE
Cosmos 1470 Rocket 3.4 23:11:47 77° ENE 23:11:47 77° ENE 23:15:58 10° N
Cosmos 220 Rocket 3.9 23:12:13 78° SW 23:12:27 83° WNW 23:16:54 10° NNE
OAO 2 Rocket 4.0 23:07:50 10° WSW 23:11:38 42° SW 23:11:38 42° SW
Cosmos 1933 Rocket 3.5 23:13:06 78° E 23:13:06 78° E 23:17:31 10° N
DMSP B5D2-2 4.0 23:08:45 10° NNE 23:13:59 89° WNW 23:15:09 56° SSW
IGS 5A 3.4 23:14:41 80° NNE 23:14:41 80° NNE 23:18:42 10° N
Iridium 2 4.0 23:14:54 64° NW 23:14:54 64° NW 23:18:28 10° N
SeaSat 1 4.0 23:15:33 22° ENE 23:16:38 23° NE 23:20:30 10° N
Cosmos 2360 Rocket 3.8 23:15:45 10° NW 23:20:14 25° WSW 23:22:22 20° SW
NOSS 3-1 (A) 4.2 23:23:10 10° SW 23:28:50 50° NW 23:35:07 10° NNE
Cosmos 1386 Rocket 4.3 23:27:31 57° S 23:28:52 88° W 23:34:55 10° N
NOSS 0 Rocket 3.8 23:26:08 10° NNW 23:32:19 78° ENE 23:33:19 63° SE
Meteor 2-10 4.4 23:27:32 10° NNW 23:33:12 66° W 23:34:15 55° SW
Meteor 1-4 Rocket 4.1 23:31:17 10° NNW 23:34:10 32° WNW 23:34:10 32° WNW
Cosmos 1626 3.3 23:40:11 42° NNW 23:40:11 42° NNW 23:42:55 10° N
Cosmos 2227 Rocket 2.3 23:42:28 56° SW 23:43:37 74° WNW 23:49:17 10° NNE
ATLAS 2AS CENTAUR R/B 2.9 23:48:09 43° SSW 23:51:00 88° ESE 23:59:04 10° NNE
Cosmos 1862 Rocket 4.4 23:51:13 10° NNW 23:54:46 45° WNW 23:54:46 45° WNW
